Stündliche Wetter Barra de Santiago

Heute, 20 Oktober, Dienstag

Zeit Temperatur Niederschläge Wind Luftdruck Luftfeuchtigkeit
00:00 +27°C° 0 mm 2 m/S 757 mmHg 85%
01:00 +27°C° 0.6 mm 2 m/S 757 mmHg 85%
02:00 +26°C° 0.6 mm 2 m/S 756 mmHg 85%
03:00 +26°C° 0.6 mm 3 m/S 756 mmHg 85%
04:00 +26°C° 0.3 mm 2 m/S 756 mmHg 85%
05:00 +26°C° 0.3 mm 2 m/S 756 mmHg 84%
06:00 +26°C° 0.3 mm 2 m/S 757 mmHg 84%
07:00 +28°C° 0.1 mm 2 m/S 757 mmHg 78%
08:00 +30°C° 0.1 mm 2 m/S 757 mmHg 73%
09:00 +32°C° 0.1 mm 1 m/S 758 mmHg 68%
10:00 +32°C° 0.1 mm 2 m/S 757 mmHg 68%
11:00 +32°C° 0.1 mm 2 m/S 757 mmHg 69%
12:00 +34°C° 0.1 mm 2 m/S 756 mmHg 70%
13:00 +32°C° 0.2 mm 2 m/S 755 mmHg 73%
14:00 +32°C° 0.2 mm 2 m/S 755 mmHg 76%
15:00 +31°C° 0.2 mm 2 m/S 754 mmHg 79%
16:00 +30°C° 0.1 mm 2 m/S 754 mmHg 83%
17:00 +29°C° 0.1 mm 1 m/S 755 mmHg 86%
18:00 +26°C° 0.1 mm 0 m/S 755 mmHg 90%
19:00 +26°C° 0.5 mm 0 m/S 756 mmHg 90%
20:00 +25°C° 0.5 mm 0 m/S 756 mmHg 91%
21:00 +27°C° 0.5 mm 1 m/S 757 mmHg 92%
22:00 +27°C° 0.2 mm 1 m/S 757 mmHg 91%
23:00 +27°C° 0.2 mm 1 m/S 757 mmHg 90%

Morgen, 21 Oktober, Mittwoch

Zeit Temperatur Niederschläge Wind Luftdruck Luftfeuchtigkeit
00:00 +27°C° 0.2 mm 2 m/S 757 mmHg 89%
01:00 +27°C° 0.3 mm 2 m/S 757 mmHg 88%
02:00 +26°C° 0.3 mm 2 m/S 756 mmHg 88%
03:00 +26°C° 0.3 mm 2 m/S 756 mmHg 87%
04:00 +26°C° 0.2 mm 2 m/S 756 mmHg 86%
05:00 +26°C° 0.2 mm 2 m/S 757 mmHg 85%
06:00 +26°C° 0.2 mm 2 m/S 757 mmHg 84%
07:00 +28°C° 0.1 mm 2 m/S 757 mmHg 79%
08:00 +30°C° 0.1 mm 2 m/S 758 mmHg 73%
09:00 +31°C° 0.1 mm 2 m/S 758 mmHg 68%
10:00 +32°C° 0 mm 2 m/S 758 mmHg 68%
11:00 +32°C° 0 mm 2 m/S 757 mmHg 67%
12:00 +34°C° 0 mm 3 m/S 757 mmHg 67%
13:00 +33°C° 0 mm 3 m/S 757 mmHg 70%
14:00 +33°C° 0 mm 3 m/S 756 mmHg 73%
15:00 +31°C° 0 mm 3 m/S 755 mmHg 76%
16:00 +30°C° 0 mm 2 m/S 756 mmHg 79%
17:00 +29°C° 0 mm 2 m/S 756 mmHg 83%
18:00 +28°C° 0 mm 1 m/S 756 mmHg 87%
19:00 +28°C° 0.1 mm 1 m/S 757 mmHg 88%
20:00 +28°C° 0.1 mm 1 m/S 758 mmHg 88%
21:00 +27°C° 0.1 mm 1 m/S 758 mmHg 89%
22:00 +27°C° 0.4 mm 1 m/S 758 mmHg 89%
23:00 +27°C° 0.4 mm 1 m/S 758 mmHg 88%

übermorgen, 22 Oktober, Donnerstag

Zeit Temperatur Niederschläge Wind Luftdruck Luftfeuchtigkeit
00:00 +27°C° 0.4 mm 2 m/S 758 mmHg 88%
01:00 +27°C° 0.3 mm 2 m/S 757 mmHg 87%
02:00 +27°C° 0.3 mm 2 m/S 757 mmHg 87%
03:00 +27°C° 0.3 mm 2 m/S 757 mmHg 87%
04:00 +26°C° 0 mm 2 m/S 757 mmHg 86%
05:00 +26°C° 0 mm 2 m/S 757 mmHg 85%
06:00 +26°C° 0 mm 2 m/S 757 mmHg 85%
07:00 +28°C° 0 mm 1 m/S 758 mmHg 80%
08:00 +30°C° 0 mm 1 m/S 758 mmHg 75%
09:00 +31°C° 0 mm 1 m/S 759 mmHg 70%
10:00 +32°C° 0.1 mm 1 m/S 758 mmHg 71%
11:00 +32°C° 0.1 mm 1 m/S 758 mmHg 72%
12:00 +32°C° 0.1 mm 2 m/S 757 mmHg 73%
13:00 +32°C° 0.6 mm 2 m/S 757 mmHg 75%
14:00 +31°C° 0.6 mm 2 m/S 756 mmHg 77%
15:00 +31°C° 0.6 mm 2 m/S 756 mmHg 79%
16:00 +30°C° 0.3 mm 1 m/S 756 mmHg 82%
17:00 +29°C° 0.3 mm 1 m/S 757 mmHg 85%
18:00 +28°C° 0.3 mm 1 m/S 757 mmHg 89%
19:00 +28°C° 0.3 mm 1 m/S 758 mmHg 89%
20:00 +28°C° 0.3 mm 1 m/S 758 mmHg 89%
21:00 +27°C° 0.3 mm 1 m/S 759 mmHg 90%
22:00 +27°C° 0.5 mm 1 m/S 759 mmHg 89%
23:00 +27°C° 0.5 mm 1 m/S 759 mmHg 88%

23 Oktober, Freitag

Zeit Temperatur Niederschläge Wind Luftdruck Luftfeuchtigkeit
00:00 +28°C° 0.5 mm 1 m/S 758 mmHg 87%
01:00 +27°C° 2.3 mm 2 m/S 758 mmHg 90%
02:00 +27°C° 2.3 mm 3 m/S 758 mmHg 92%
03:00 +26°C° 2.3 mm 4 m/S 758 mmHg 95%
04:00 +26°C° 0.4 mm 3 m/S 758 mmHg 94%
05:00 +26°C° 0.4 mm 2 m/S 758 mmHg 93%
06:00 +26°C° 0.4 mm 2 m/S 758 mmHg 91%
07:00 +27°C° 0 mm 2 m/S 758 mmHg 88%
08:00 +28°C° 0 mm 1 m/S 759 mmHg 84%
09:00 +30°C° 0 mm 1 m/S 759 mmHg 80%
10:00 +30°C° 0.1 mm 2 m/S 759 mmHg 80%
11:00 +30°C° 0.1 mm 2 m/S 759 mmHg 79%
12:00 +30°C° 0.1 mm 2 m/S 758 mmHg 78%
13:00 +30°C° 0.1 mm 2 m/S 757 mmHg 78%
14:00 +31°C° 0.1 mm 1 m/S 757 mmHg 77%
15:00 +31°C° 0.1 mm 1 m/S 756 mmHg 77%
16:00 +30°C° 0.1 mm 1 m/S 756 mmHg 81%
17:00 +28°C° 0.1 mm 1 m/S 757 mmHg 86%
18:00 +27°C° 0.1 mm 1 m/S 757 mmHg 90%
19:00 +27°C° 0 mm 1 m/S 758 mmHg 90%
20:00 +27°C° 0 mm 1 m/S 758 mmHg 91%
21:00 +26°C° 0 mm 1 m/S 759 mmHg 91%
22:00 +26°C° 0 mm 1 m/S 759 mmHg 90%
23:00 +26°C° 0 mm 1 m/S 759 mmHg 89%

24 Oktober, Samstag

Zeit Temperatur Niederschläge Wind Luftdruck Luftfeuchtigkeit
00:00 +26°C° 0 mm 1 m/S 758 mmHg 88%
01:00 +26°C° 0.2 mm 2 m/S 758 mmHg 88%
02:00 +26°C° 0.2 mm 2 m/S 758 mmHg 89%
03:00 +26°C° 0.2 mm 2 m/S 758 mmHg 89%
04:00 +26°C° 0.1 mm 2 m/S 758 mmHg 89%
05:00 +26°C° 0.1 mm 2 m/S 758 mmHg 89%
06:00 +26°C° 0.1 mm 2 m/S 758 mmHg 88%
07:00 +28°C° 0 mm 2 m/S 758 mmHg 82%
08:00 +30°C° 0 mm 2 m/S 759 mmHg 76%
09:00 +32°C° 0 mm 1 m/S 759 mmHg 70%
10:00 +32°C° 0.4 mm 1 m/S 759 mmHg 72%
11:00 +32°C° 0.4 mm 2 m/S 758 mmHg 74%
12:00 +32°C° 0.4 mm 2 m/S 757 mmHg 77%
13:00 +31°C° 0.4 mm 2 m/S 757 mmHg 78%
14:00 +31°C° 0.4 mm 2 m/S 756 mmHg 80%
15:00 +31°C° 0.4 mm 2 m/S 755 mmHg 81%
16:00 +30°C° 0.1 mm 2 m/S 756 mmHg 85%
17:00 +29°C° 0.1 mm 2 m/S 756 mmHg 88%
18:00 +28°C° 0.1 mm 3 m/S 756 mmHg 92%
19:00 +27°C° 0 mm 2 m/S 757 mmHg 92%
20:00 +27°C° 0 mm 2 m/S 758 mmHg 92%
21:00 +27°C° 0 mm 2 m/S 758 mmHg 92%
22:00 +27°C° 0.1 mm 2 m/S 758 mmHg 91%
23:00 +27°C° 0.1 mm 2 m/S 758 mmHg 90%

25 Oktober, Sonntag

Zeit Temperatur Niederschläge Wind Luftdruck Luftfeuchtigkeit
00:00 +27°C° 0.1 mm 2 m/S 758 mmHg 89%
01:00 +26°C° 0.2 mm 2 m/S 757 mmHg 88%
02:00 +26°C° 0.2 mm 2 m/S 757 mmHg 87%
03:00 +26°C° 0.2 mm 3 m/S 757 mmHg 87%
04:00 +26°C° 0.1 mm 3 m/S 757 mmHg 86%
05:00 +26°C° 0.1 mm 3 m/S 757 mmHg 85%
06:00 +26°C° 0.1 mm 3 m/S 757 mmHg 84%
07:00 +28°C° 0 mm 2 m/S 758 mmHg 79%
08:00 +30°C° 0 mm 1 m/S 758 mmHg 73%
09:00 +32°C° 0 mm 1 m/S 758 mmHg 68%
10:00 +32°C° 0 mm 1 m/S 758 mmHg 68%
11:00 +32°C° 0 mm 2 m/S 757 mmHg 68%
12:00 +34°C° 0 mm 2 m/S 757 mmHg 68%
13:00 +32°C° 0.2 mm 2 m/S 756 mmHg 71%
14:00 +32°C° 0.2 mm 2 m/S 755 mmHg 73%
15:00 +31°C° 0.2 mm 2 m/S 755 mmHg 76%
16:00 +30°C° 0.1 mm 2 m/S 755 mmHg 80%
17:00 +29°C° 0.1 mm 2 m/S 756 mmHg 85%
18:00 +28°C° 0.1 mm 2 m/S 756 mmHg 90%
19:00 +28°C° 0.1 mm 1 m/S 757 mmHg 91%
20:00 +27°C° 0.1 mm 1 m/S 757 mmHg 92%
21:00 +27°C° 0.1 mm 1 m/S 758 mmHg 93%
22:00 +27°C° 0.1 mm 2 m/S 757 mmHg 92%
23:00 +27°C° 0.1 mm 2 m/S 757 mmHg 91%

26 Oktober, Montag

Zeit Temperatur Niederschläge Wind Luftdruck Luftfeuchtigkeit
00:00 +27°C° 0.1 mm 2 m/S 757 mmHg 90%
01:00 +27°C° 1.1 mm 2 m/S 757 mmHg 90%
02:00 +27°C° 1.1 mm 2 m/S 756 mmHg 90%
03:00 +26°C° 1.1 mm 2 m/S 756 mmHg 90%
04:00 +26°C° 1.4 mm 1 m/S 756 mmHg 90%
05:00 +26°C° 1.4 mm 1 m/S 757 mmHg 90%
06:00 +26°C° 1.4 mm 1 m/S 757 mmHg 89%
07:00 +28°C° 0.3 mm 1 m/S 757 mmHg 85%
08:00 +29°C° 0.3 mm 1 m/S 757 mmHg 81%
09:00 +31°C° 0.3 mm 1 m/S 758 mmHg 76%
10:00 +31°C° 0.2 mm 1 m/S 757 mmHg 77%
11:00 +31°C° 0.2 mm 2 m/S 757 mmHg 77%
12:00 +32°C° 0.2 mm 2 m/S 756 mmHg 78%
13:00 +31°C° 0.5 mm 2 m/S 756 mmHg 80%
14:00 +31°C° 0.5 mm 2 m/S 755 mmHg 82%
15:00 +30°C° 0.5 mm 2 m/S 755 mmHg 84%
16:00 +29°C° 0.1 mm 2 m/S 755 mmHg 87%
17:00 +29°C° 0.1 mm 2 m/S 755 mmHg 89%
18:00 +28°C° 0.1 mm 2 m/S 756 mmHg 91%
19:00 +28°C° 0.1 mm 2 m/S 756 mmHg 92%
20:00 +27°C° 0.1 mm 2 m/S 757 mmHg 92%
21:00 +27°C° 0.1 mm 2 m/S 757 mmHg 93%
22:00 +27°C° 0 mm 2 m/S 757 mmHg 92%
23:00 +27°C° 0 mm 2 m/S 757 mmHg 91%
Mehr zeigen